Theta_e
310 310 310 311 311 311 311 311 311 312 312 313 314 314 313 313 313 313 313 315 314 313 313 313 314 314 314 314 315 314 314 314 314 314 315 315 315 315 315 316 315 315 314 314 313 312 312 311 311 311 311 311 311 310 310 310 309 308 307 307 309 309 309 311 311 310 311 312 311 310 311 313 316 317 317 318 318 317 317 318 318 319 320 320 319 318 318
311 311 311 311 311 311 311 311 312 311 312 312 313 313 312 313 314 313 313 315 315 313 313 313 313 314 314 313 313 313 313 313 313 314 314 315 314 314 314 314 315 314 314 314 312 311 311 311 311 311 311 311 311 310 310 309 309 309 308 308 307 307 308 309 309 308 308 309 309 309 310 312 314 314 315 316 317 316 315 315 315 316 317 318 319 319 319
311 311 311 310 310 310 310 310 311 311 312 312 312 313 314 313 313 313 314 315 315 313 313 313 313 313 313 313 313 313 312 313 313 313 313 314 314 313 313 313 314 313 313 313 312 311 311 311 310 310 309 309 310 309 308 308 308 307 307 307 307 307 308 308 308 307 308 309 309 309 309 310 310 311 312 313 314 314 315 315 315 315 314 313 313 314 316
311 310 310 310 310 310 310 311 311 311 312 312 312 312 313 313 314 314 314 314 313 312 312 312 312 312 312 312 312 312 312 312 312 312 312 313 314 313 313 313 313 313 312 312 311 311 311 310 310 309 308 309 310 309 307 307 306 304 303 304 306 307 308 308 308 308 308 309 309 309 309 309 310 310 311 311 311 312 314 315 316 316 315 314 312 311 312
310 310 310 310 310 310 310 311 311 311 311 311 312 312 312 313 313 313 313 312 311 311 312 312 312 312 312 312 312 312 311 311 311 312 312 312 312 312 312 312 312 312 311 311 311 310 310 310 310 308 308 309 309 308 307 307 307 306 306 306 307 307 307 307 308 308 308 308 308 309 309 309 309 309 310 311 311 311 313 313 314 316 317 317 317 316 315
309 310 310 310 310 310 311 311 311 311 310 311 311 312 312 311 312 312 311 311 311 311 311 311 311 311 311 311 311 311 311 311 311 312 312 311 311 312 312 311 311 311 310 310 311 310 310 309 309 308 308 309 309 308 308 308 308 308 308 308 308 308 308 308 308 308 308 308 309 309 309 309 309 309 309 310 311 311 312 312 313 314 315 316 317 317 317
309 309 309 310 310 310 310 310 310 310 310 310 310 310 310 309 310 310 310 310 310 310 310 310 310 310 310 310 310 310 310 311 311 311 311 311 311 311 311 311 310 310 310 310 310 310 309 309 307 307 308 309 308 308 308 308 308 308 308 308 307 308 308 308 308 308 308 309 309 310 309 309 309 309 309 309 309 310 311 311 311 312 313 314 315 315 316
309 309 309 309 310 309 309 310 310 310 309 309 309 308 308 309 309 309 309 309 309 310 309 309 309 309 309 309 309 309 310 310 310 309 310 311 311 310 310 310 310 309 310 309 309 309 309 308 307 307 308 308 308 308 308 308 308 308 308 307 307 307 308 308 308 308 308 309 310 310 310 310 310 309 309 309 310 310 311 311 311 311 312 312 313 314 314
308 308 308 309 309 308 309 310 310 310 310 309 309 308 308 308 308 308 308 308 308 309 309 308 308 308 308 308 309 309 308 309 309 308 309 310 310 309 309 309 309 309 308 308 308 308 308 308 307 307 307 307 308 308 307 307 308 308 307 307 307 307 307 307 307 307 307 308 309 309 309 310 310 310 310 310 310 310 310 311 312 312 312 312 313 313 314
307 307 307 308 308 308 309 309 309 309 309 309 308 307 307 308 307 307 307 307 307 308 308 307 308 307 307 308 308 308 307 308 307 307 308 308 308 308 308 308 308 307 307 307 307 307 306 306 306 306 307 307 307 307 307 307 307 307 307 307 307 306 307 307 307 307 307 307 308 308 309 309 309 309 309 309 310 310 310 310 312 312 312 312 312 313 313
307 307 307 307 307 307 308 309 308 308 308 308 307 306 306 307 307 306 306 306 306 306 307 307 307 306 306 307 308 307 306 306 306 306 306 307 307 307 306 306 306 306 306 306 306 306 305 305 306 307 307 307 306 306 306 306 306 307 307 306 307 306 307 307 307 307 307 307 307 308 308 309 309 309 309 309 309 309 310 310 311 311 312 312 312 312 312
307 307 307 306 306 307 308 307 306 307 307 307 306 306 305 305 306 306 306 305 305 305 305 306 306 305 305 306 306 306 306 306 306 305 305 305 305 305 305 305 305 305 304 305 305 304 304 304 305 306 306 306 306 306 306 307 307 307 307 307 307 307 307 307 306 306 307 307 307 307 308 308 309 309 309 310 310 310 310 311 311 311 312 311 312 312 312
306 306 306 306 306 306 306 306 306 306 306 306 305 305 304 304 305 305 305 305 305 304 305 305 305 305 305 305 305 305 305 305 305 305 305 305 305 305 304 304 304 304 304 304 304 304 303 304 304 304 305 305 306 306 306 306 307 307 307 307 307 307 307 306 306 306 307 307 307 307 308 308 309 309 310 310 310 310 310 310 311 311 311 311 311 311 312
305 306 305 305 306 304 304 304 305 305 305 305 304 303 303 303 304 304 303 304 304 304 303 304 304 304 304 304 304 304 304 304 304 304 304 304 304 304 304 304 303 303 303 303 303 303 304 304 304 304 304 304 304 305 305 305 305 305 305 306 306 306 306 306 306 306 306 306 306 306 307 307 308 309 309 310 310 309 310 310 310 311 311 311 311 311 311
305 305 305 305 305 303 303 303 304 303 303 303 303 302 303 303 303 303 303 303 303 302 303 302 303 303 303 303 303 303 303 303 303 303 303 303 303 303 303 303 303 303 303 303 302 302 303 303 303 304 304 304 304 304 305 305 305 304 304 305 305 305 305 306 306 306 306 307 307 307 307 307 308 309 309 308 308 308 308 309 310 310 311 311 311 311 311
303 304 304 304 303 302 302 303 302 302 302 302 302 302 302 302 302 302 302 302 302 301 302 302 302 302 302 302 302 302 302 302 303 302 302 302 302 302 302 302 303 302 302 302 302 302 302 302 302 303 303 303 304 304 304 305 305 304 304 304 304 305 305 305 305 306 306 307 307 307 308 308 308 308 308 307 307 307 308 308 309 310 310 310 310 310 310
303 303 303 303 302 302 302 301 301 301 301 301 301 301 301 301 301 301 301 301 301 301 301 301 301 301 301 301 301 301 301 301 301 301 302 302 302 302 302 302 302 302 302 302 302 302 302 302 302 302 303 303 303 303 304 304 305 305 305 305 305 305 305 305 306 306 306 306 306 307 307 307 307 307 307 307 307 307 308 308 309 309 309 309 309 309 309
302 302 302 302 302 301 301 300 301 301 300 300 300 300 300 300 300 300 300 300 300 300 300 300 300 300 300 300 300 300 300 300 300 300 301 301 301 301 301 301 301 301 301 302 302 302 302 302 302 302 302 302 303 303 304 304 304 304 304 304 305 305 305 305 305 305 305 305 305 305 305 306 306 306 306 307 307 307 308 308 308 308 309 308 309 308 307
300 300 301 301 301 300 300 300 300 300 300 300 299 299 299 299 299 299 299 299 299 299 299 299 299 299 299 299 299 299 300 299 300 300 300 300 300 300 300 301 301 301 301 301 301 301 302 302 302 302 302 303 303 303 303 303 304 304 304 304 304 305 304 304 304 304 304 304 305 305 305 305 305 306 306 307 307 307 307 307 308 308 308 307 307 307 306
300 300 300 300 299 299 299 299 299 299 299 299 299 299 298 299 299 299 299 299 299 299 298 299 299 299 299 299 299 299 299 299 299 299 300 300 300 300 300 300 300 300 300 301 301 301 302 302 302 302 302 303 303 303 303 303 303 304 304 304 304 304 304 304 304 304 304 304 304 304 305 305 305 306 306 306 306 306 307 307 307 307 307 307 307 306 305
299 299 300 299 299 299 299 299 299 299 298 298 298 298 298 298 298 298 298 298 299 299 299 299 299 299 300 299 299 299 299 299 299 299 299 299 299 299 299 300 300 300 300 300 301 301 302 302 302 302 302 303 303 303 303 303 304 304 305 304 304 303 303 303 303 303 303 303 303 304 304 305 305 306 305 305 306 306 306 306 306 306 306 306 305 304 303
298 299 299 298 298 298 298 298 298 298 298 298 299 299 299 299 299 299 299 299 299 299 299 299 299 300 300 300 299 300 300 300 300 300 300 300 299 299 299 299 300 300 300 300 301 301 301 302 302 302 302 302 303 303 303 304 304 304 304 304 303 302 302 302 303 303 303 303 303 303 304 304 305 305 305 305 305 305 305 305 305 305 304 303 301 300 300
298 298 298 298 298 298 298 298 298 298 298 298 299 299 300 300 299 299 299 299 299 299 299 299 299 300 300 300 300 300 300 300 300 300 300 300 300 300 299 299 299 300 300 300 301 301 301 301 302 302 302 302 303 303 303 304 304 303 303 302 302 301 301 301 301 301 301 301 302 302 303 304 304 304 305 304 304 304 304 304 303 302 301 301 300 298 297
298 298 298 298 298 298 298 298 298 298 299 299 299 299 299 299 299 299 298 298 298 298 298 298 299 299 299 299 299 299 299 299 299 299 300 300 300 300 299 300 300 300 300 301 301 301 301 301 301 302 302 302 303 303 303 303 303 302 302 301 300 300 300 299 299 300 300 301 301 302 303 304 304 304 304 303 302 301 301 300 299 298 298 298 297 296 296
298 298 298 298 298 298 298 298 299 299 299 299 299 298 298 298 298 298 298 298 297 298 298 298 298 298 298 298 298 298 299 299 299 300 300 299 300 300 300 300 300 300 301 301 301 301 301 302 302 302 302 302 302 302 303 303 302 301 300 300 299 298 298 299 299 300 300 301 302 302 302 302 302 302 302 301 300 299 298 297 296 296 296 296 296 296 296
298 298 298 298 298 298 298 298 298 298 298 298 298 298 298 298 297 298 297 297 297 298 298 298 298 298 298 298 298 299 299 299 299 299 300 300 299 299 300 300 300 300 300 301 301 301 301 301 301 301 302 302 302 302 302 301 301 300 299 298 298 298 298 298 298 299 299 300 300 299 299 299 298 298 298 298 297 296 296 295 296 296 296 296 296 296 296
298 298 298 298 298 298 298 298 298 298 297 297 297 297 297 297 297 297 297 297 297 297 297 297 297 297 297 297 297 297 298 298 298 299 299 299 299 299 300 300 300 300 300 300 300 301 301 301 301 301 301 301 301 302 301 300 300 299 298 297 297 297 297 297 297 297 297 297 296 296 296 296 296 296 295 295 295 295 295 295 295 295 295 295 295 296 296
298 298 298 298 298 298 298 298 298 297 297 297 297 297 297 297 297 296 296 296 296 296 296 296 296 295 295 295 295 296 296 296 296 297 297 297 298 298 298 299 298 298 298 298 299 299 300 300 301 301 301 301 301 301 301 300 298 297 297 296 296 296 296 296 296 295 295 295 295 295 295 295 295 295 294 294 294 295 295 295 296 296 296 296 296 296 296
298 298 297 298 298 297 298 298 297 297 297 297 297 297 296 296 295 295 295 295 294 294 294 294 294 294 294 294 294 294 294 294 294 295 295 295 296 296 296 297 297 297 297 298 298 298 298 299 300 300 300 300 301 301 300 298 297 296 296 296 296 296 296 296 295 295 295 295 295 295 295 295 295 295 295 295 295 296 296 296 297 297 297 297 297 297 297
298 298 297 298 298 297 298 297 297 297 297 296 296 296 295 294 294 294 294 293 293 293 293 293 292 292 292 292 292 292 291 292 292 293 294 294 294 294 294 295 295 296 296 296 297 297 297 298 299 300 301 301 301 300 298 297 296 296 296 296 297 296 296 296 296 296 296 295 295 296 296 296 296 296 297 297 297 297 297 297 297 297 298 297 297 297 297
298 297 297 297 297 297 297 297 297 297 296 296 295 294 294 294 293 293 293 293 292 292 291 291 291 291 291 291 290 290 290 291 291 291 292 292 292 292 292 293 293 293 294 294 295 296 297 298 298 299 301 301 300 299 297 296 296 297 297 297 298 297 296 296 297 297 297 297 297 297 297 297 297 297 298 298 298 298 298 298 298 298 298 297 297 297 297
297 297 297 297 297 297 297 297 296 296 296 295 294 294 293 293 293 292 292 292 291 291 291 290 290 290 290 290 290 290 290 290 290 290 290 291 291 291 291 292 292 293 293 294 294 295 295 297 299 300 300 300 299 298 297 297 297 297 297 297 297 297 297 297 297 297 297 297 297 298 298 298 298 298 298 298 298 298 298 298 298 298 298 298 298 297 297
297 297 297 297 297 297 297 296 296 295 295 294 294 293 293 292 292 292 292 291 291 290 290 290 290 290 290 289 289 290 289 289 289 290 290 290 290 291 291 291 292 293 293 295 296 296 296 298 300 301 300 299 299 298 298 298 298 298 298 297 297 297 297 298 297 297 297 297 298 298 298 298 298 298 298 298 298 298 298 298 298 298 299 298 298 298 297
297 297 297 297 297 296 296 295 295 295 295 294 294 293 292 292 292 291 291 291 291 290 290 290 290 290 290 289 289 289 289 289 289 289 290 290 290 291 291 292 292 293 294 295 297 297 297 298 300 300 299 299 299 299 299 299 299 299 298 298 297 297 297 297 297 297 297 297 298 298 298 298 298 298 298 298 298 298 298 298 298 298 298 298 298 297 297
297 296 296 296 296 295 295 295 295 295 294 294 293 293 292 292 292 291 291 291 291 290 291 291 291 290 290 290 289 289 289 289 289 289 289 290 290 291 291 292 293 294 295 296 298 298 298 299 299 299 299 299 299 299 299 299 298 298 298 298 297 297 297 297 297 297 297 298 298 298 298 298 298 298 298 298 298 297 298 297 297 297 297 297 297 296 295
296 296 296 296 295 295 295 295 295 294 294 293 293 292 292 291 291 291 291 291 291 291 291 291 291 290 290 290 290 289 289 289 289 288 289 289 290 291 291 292 293 294 295 296 297 298 298 298 299 299 299 299 299 299 299 299 298 298 298 298 297 297 297 297 297 298 298 298 298 298 297 297 297 298 298 298 297 297 297 296 296 297 297 296 295 295 295
296 295 295 295 295 295 295 295 294 294 294 293 292 291 291 290 289 289 289 289 290 290 290 290 290 290 290 290 290 290 290 289 288 288 288 289 290 291 292 292 293 294 295 295 295 296 297 298 298 299 299 299 299 299 299 299 299 298 298 297 297 297 297 297 298 298 298 298 298 297 296 296 297 297 297 297 297 297 296 296 296 296 295 294 293 294 295
295 295 295 295 295 295 295 294 294 294 294 294 292 291 290 289 289 289 289 288 288 289 289 289 289 289 289 289 290 291 291 290 289 288 288 288 289 291 292 292 292 293 294 294 295 296 297 298 298 299 299 299 299 299 299 299 299 299 298 297 297 297 298 298 298 298 298 297 297 296 296 297 297 297 297 297 296 296 297 296 296 294 294 294 294 294 294
295 295 295 295 295 295 294 294 294 294 294 294 293 292 291 291 291 290 290 290 289 288 288 289 289 290 290 289 289 289 290 290 291 290 289 288 289 290 291 291 291 292 293 293 295 296 297 298 299 299 299 299 299 299 298 298 298 298 298 298 298 298 298 298 298 298 298 297 296 296 296 297 297 296 296 296 296 296 296 295 294 293 293 294 294 294 293
295 295 295 295 295 294 294 293 293 293 293 293 293 292 292 291 291 291 290 291 291 290 289 289 289 290 290 289 289 289 289 289 290 291 291 290 290 290 291 291 291 292 293 294 295 296 298 298 299 299 299 299 299 298 298 298 298 298 298 298 298 298 298 298 298 298 297 297 296 296 296 296 296 296 296 296 296 296 295 294 293 293 293 293 293 293 293
296 295 295 295 295 294 293 292 292 292 292 292 292 292 291 291 291 290 290 290 291 291 291 290 290 289 289 288 289 289 289 288 288 289 291 291 291 291 292 292 292 293 294 295 296 297 297 298 298 298 298 298 298 298 298 298 297 297 298 298 298 298 298 298 297 297 297 296 296 296 296 296 296 296 296 296 296 295 294 293 293 292 293 293 292 292 292
295 295 295 295 295 294 294 293 292 292 292 292 292 291 290 290 290 290 289 289 289 290 291 291 291 290 288 287 287 287 288 288 287 287 288 289 290 291 291 291 292 293 293 294 295 296 296 296 297 297 297 297 297 297 297 297 297 297 297 297 297 297 296 296 296 296 295 295 295 295 295 295 295 295 295 296 295 294 292 291 291 291 291 291 291 291 291
295 295 295 295 295 295 294 293 293 292 292 292 292 291 290 290 290 290 288 287 287 288 290 291 291 291 290 289 287 286 286 286 286 286 286 287 288 288 289 290 290 291 292 292 293 293 293 293 294 294 295 296 297 296 296 296 296 296 296 296 296 295 295 295 295 295 295 295 295 294 294 294 294 294 294 294 293 291 291 291 291 290 290 290 291 291 292
295 295 295 295 295 295 295 294 293 293 292 291 291 291 291 290 290 289 289 287 286 287 288 289 291 291 291 291 290 288 286 285 285 285 285 286 286 286 287 287 288 289 289 289 290 290 290 290 291 291 292 293 294 295 295 295 296 296 296 296 296 296 295 295 295 294 294 294 294 294 294 294 294 293 293 292 291 291 291 290 290 290 290 290 291 292 292
295 295 296 295 295 295 295 294 293 293 292 291 291 290 291 291 290 290 289 289 288 287 286 287 288 290 291 291 290 290 288 286 285 285 285 286 286 286 285 286 287 287 287 288 288 288 288 289 289 289 290 290 291 292 292 293 293 294 294 295 295 295 295 294 294 293 293 292 292 292 292 292 292 292 291 291 290 290 290 289 290 290 291 292 292 292 292
296 295 295 295 295 295 295 294 294 292 292 292 292 291 291 291 291 291 290 290 290 289 287 286 286 288 290 290 290 290 289 287 286 285 285 285 285 285 285 285 285 286 286 287 287 287 287 288 288 289 289 289 289 290 290 290 290 291 291 291 291 291 291 291 291 291 291 291 290 290 290 290 289 289 289 289 289 289 289 290 290 291 291 291 291 291 291
296 295 295 295 295 295 295 295 294 293 292 293 294 293 291 291 291 291 291 290 290 290 289 287 285 285 286 287 288 289 289 288 287 286 285 284 284 285 285 285 285 285 285 286 286 286 287 287 288 288 288 288 289 289 289 289 289 289 289 289 290 289 289 289 289 289 289 289 289 289 289 289 288 288 287 287 287 288 289 289 290 290 290 290 291 291 291
296 296 295 295 295 296 296 295 294 293 293 294 294 293 292 291 292 291 291 291 291 291 291 290 288 287 286 285 285 286 287 287 286 285 285 284 283 284 285 285 285 285 285 285 285 285 286 286 287 288 288 288 288 288 288 288 288 288 288 289 289 289 289 289 288 288 288 288 288 288 288 288 287 287 287 287 286 287 288 288 289 289 289 290 290 290 291
297 296 295 295 295 296 296 295 295 294 294 294 293 293 292 292 292 292 292 292 291 291 291 290 290 289 288 287 285 285 285 285 285 285 284 284 284 284 284 284 285 285 285 285 284 284 285 286 286 286 287 287 287 288 288 287 287 287 288 288 287 287 287 287 287 287 287 287 287 287 287 286 286 286 286 286 286 287 288 288 288 288 289 290 290 290 291
297 296 296 296 296 296 296 296 295 295 294 294 293 293 292 292 293 293 292 291 291 291 291 290 290 289 289 288 287 286 285 285 285 284 284 284 284 284 284 284 284 285 285 285 284 284 284 285 285 285 285 286 286 286 286 286 286 286 287 287 287 287 286 286 286 286 286 286 286 286 286 285 285 286 286 286 287 287 287 287 288 288 289 289 289 289 290
296 296 296 296 296 296 296 296 296 295 294 294 294 293 292 292 293 293 292 291 291 292 291 290 290 289 288 288 288 287 287 286 285 285 285 285 285 284 284 284 284 285 285 285 284 284 284 284 284 285 285 285 285 285 285 285 285 285 285 285 285 285 285 285 285 285 285 285 285 285 285 285 285 285 286 286 286 286 286 287 287 288 288 287 288 288 289
295 295 296 296 296 296 295 295 294 294 294 294 293 293 292 292 292 292 291 290 291 292 291 290 290 289 288 288 287 286 286 285 285 284 285 285 285 284 284 284 284 284 284 284 284 284 284 284 284 284 284 284 284 284 284 284 284 283 283 283 284 284 284 284 285 285 285 284 285 285 285 285 285 285 285 285 285 284 285 286 287 287 286 286 287 287 288
Wind_Speed
14 15 15 15 14 13 14 14 14 13 14 13 10 9 10 10 8 8 8 9 11 11 9 9 9 8 7 6 4 3 5 7 9 9 8 8 8 8 8 8 8 7 9 10 10 10 10 10 9 9 9 9 9 9 8 7 7 6 5 7 6 4 4 3 2 2 1 1 3 3 3 3 5 6 6 7 8 12 16 18 19 19 21 24 25 24 25
13 14 14 14 14 13 14 15 15 14 14 15 14 12 12 12 12 13 13 12 12 12 10 9 10 12 13 12 8 5 8 10 9 11 12 12 10 10 9 9 7 6 6 7 8 8 8 9 9 9 9 8 8 7 7 6 6 4 3 2 3 3 3 1 2 1 1 2 3 3 3 4 5 6 7 8 9 10 11 12 14 15 16 20 22 23 24
10 12 13 13 13 14 15 15 14 14 14 15 14 12 10 11 11 12 12 11 9 7 10 12 12 13 14 14 13 13 13 14 13 13 15 15 13 12 10 10 9 7 6 5 6 6 6 6 7 7 7 6 5 5 4 5 4 2 1 1 0 1 1 1 2 2 2 3 3 3 4 5 6 7 7 9 10 11 13 13 14 14 14 15 17 18 20
8 9 12 13 13 14 15 15 13 13 13 12 11 10 9 8 8 9 9 9 7 6 9 12 12 13 15 16 14 14 12 13 16 17 17 15 14 13 10 10 11 9 7 5 4 4 4 4 4 5 4 4 5 3 2 2 2 0 1 1 1 1 1 1 2 3 3 4 4 5 5 5 6 7 7 8 9 11 12 14 15 16 15 15 16 16 16
7 9 11 11 10 10 11 9 8 10 11 10 11 11 10 10 9 8 7 7 8 8 9 11 9 10 14 14 12 13 13 13 13 13 14 15 17 15 11 10 11 10 7 6 5 2 1 2 2 3 4 4 4 3 1 2 2 2 3 2 2 1 2 2 2 4 4 5 5 5 6 6 7 8 8 8 9 10 12 13 14 16 17 16 17 18 18
7 10 11 10 8 8 6 5 4 7 9 10 9 9 9 10 9 8 8 9 10 8 9 10 7 8 13 15 18 18 14 11 13 14 11 10 11 10 9 11 10 8 5 5 4 0 2 1 1 1 1 2 2 2 2 1 0 1 1 2 2 2 3 3 4 5 5 6 6 6 6 7 8 9 9 9 10 11 12 13 13 14 16 16 18 19 21
7 8 8 8 8 6 5 7 6 5 7 8 8 9 11 11 11 12 11 11 10 9 11 11 9 8 11 13 17 17 12 9 12 15 13 11 8 4 5 8 6 5 4 3 2 2 3 3 5 4 2 2 2 1 1 1 2 2 2 3 3 4 5 5 5 6 6 6 7 7 8 8 9 10 10 11 11 12 12 13 13 14 15 16 18 19 21
6 6 7 8 8 7 8 8 6 5 3 5 7 8 8 8 10 12 12 10 9 10 13 12 10 10 11 10 11 11 10 11 15 19 16 9 8 5 7 7 4 4 1 2 3 4 5 6 7 5 3 2 2 2 3 3 3 4 4 4 5 5 6 6 7 7 7 8 8 9 10 10 10 11 11 11 12 12 13 14 14 14 15 16 18 19 21
6 7 8 8 9 11 9 5 7 7 4 4 4 4 5 7 8 8 9 10 10 11 11 11 13 14 11 7 8 11 12 10 10 15 17 10 5 6 6 5 2 1 3 5 6 5 5 7 8 8 6 5 4 4 4 5 5 5 6 6 6 6 7 7 8 8 8 9 10 11 11 11 12 12 12 12 13 13 14 14 14 14 15 16 17 18 20
6 7 7 7 8 7 2 5 8 8 8 8 6 4 4 5 6 9 10 10 12 12 11 10 12 12 8 4 5 12 14 10 8 9 10 9 7 5 2 2 3 4 6 7 8 7 7 8 9 9 8 7 6 6 7 7 7 7 7 7 7 8 9 9 9 9 10 10 11 12 12 13 13 14 14 14 14 14 15 15 15 15 15 16 16 18 20
6 6 6 7 6 2 4 6 6 8 9 7 5 3 2 6 12 13 9 8 11 13 13 12 9 7 5 2 5 11 14 12 10 9 9 7 4 1 1 3 5 6 6 5 6 8 10 11 11 10 10 9 9 9 8 8 8 9 10 10 10 10 11 10 11 11 11 12 12 13 14 15 15 16 16 16 16 15 15 15 15 15 15 16 18 20 22
7 7 7 6 4 2 6 7 6 8 9 7 5 4 1 8 13 11 8 9 10 10 12 11 8 5 4 5 7 10 12 11 10 10 10 9 7 5 5 5 6 7 6 6 8 11 13 13 12 12 12 12 12 11 10 11 11 12 12 12 12 13 13 13 14 14 14 14 14 14 15 15 15 16 16 16 16 15 15 15 14 14 16 19 20 21 22
8 8 8 6 1 3 6 9 8 7 6 4 3 3 2 6 11 10 10 11 11 11 12 10 8 7 9 10 11 12 11 10 11 11 10 11 10 9 10 10 11 10 9 9 12 14 15 15 14 14 14 13 13 13 12 12 13 13 14 14 14 15 15 15 15 15 15 15 15 15 15 15 16 16 15 15 15 14 14 14 14 15 19 22 23 23 23
7 5 7 7 3 1 5 9 9 7 4 1 2 5 6 8 10 11 11 11 12 12 12 12 11 11 12 13 14 14 14 13 13 12 11 12 12 12 13 14 14 13 13 13 14 15 15 16 15 15 15 16 16 15 15 15 15 15 16 16 16 16 16 16 16 17 17 18 18 18 18 18 18 18 17 15 15 15 15 14 14 17 21 23 24 24 24
5 5 7 6 2 1 5 7 6 6 4 3 5 9 11 11 12 13 12 13 13 13 13 13 13 14 15 15 16 16 16 17 17 16 15 15 14 14 15 15 15 16 17 17 18 17 17 17 17 16 16 17 17 17 18 17 17 17 17 17 17 18 18 18 18 18 19 18 18 19 19 18 18 18 18 17 16 16 16 15 15 18 22 22 22 22 21
2 4 4 1 3 5 6 7 6 5 6 7 9 11 12 13 13 14 14 14 15 15 15 15 15 16 16 17 17 17 18 18 18 19 19 19 18 17 17 18 18 18 20 20 20 19 19 19 18 17 17 18 19 19 19 19 18 18 18 18 19 19 19 20 19 18 17 17 16 17 17 17 17 18 19 19 18 17 16 15 17 20 22 22 20 19 18
2 5 5 4 5 7 7 10 8 6 7 9 11 13 14 15 15 16 16 16 17 17 16 16 17 18 18 19 19 20 20 21 21 21 21 22 22 22 21 21 21 21 22 23 22 21 20 19 18 18 18 19 20 19 19 19 19 19 19 19 19 20 20 20 19 18 18 18 18 18 18 18 18 18 18 19 18 17 16 18 20 22 22 20 18 18 17
5 7 7 8 10 11 12 11 10 10 11 13 13 14 15 16 16 17 17 18 19 19 19 19 19 20 20 21 22 22 23 24 23 23 24 24 25 24 24 24 24 23 23 23 22 22 21 19 19 20 20 19 19 20 20 19 20 20 20 20 20 20 21 21 20 20 21 21 21 21 20 19 19 19 19 19 18 18 19 21 22 21 20 20 19 18 17
6 6 6 8 12 14 14 13 13 13 13 14 14 15 16 17 18 18 19 20 21 21 21 22 23 23 23 24 24 24 25 25 25 24 25 25 25 25 25 25 25 24 24 23 22 21 20 19 20 20 20 20 20 20 20 20 21 21 21 21 21 21 22 22 22 22 22 22 22 21 20 20 19 18 19 20 20 21 22 22 21 20 20 20 20 18 18
6 7 8 11 15 15 13 12 13 13 15 16 17 18 19 20 20 21 21 22 23 24 24 24 25 26 25 25 26 26 26 26 26 26 26 26 25 25 25 24 23 24 24 23 21 19 18 18 19 20 21 21 21 21 21 21 21 21 22 22 21 22 23 23 23 23 23 23 24 23 22 21 21 21 22 23 22 21 20 19 20 20 21 20 19 19 19
7 7 8 12 15 12 11 12 14 15 17 19 20 20 21 22 22 22 22 23 23 23 24 24 24 25 25 25 25 26 26 26 27 27 27 27 27 26 26 25 24 23 22 21 20 19 19 19 20 21 21 21 21 21 21 21 21 20 19 18 20 22 24 24 24 24 24 25 25 23 22 24 25 25 24 23 21 19 17 17 18 19 19 18 16 15 15
5 6 9 12 11 9 12 16 18 18 19 21 21 21 20 19 19 19 20 20 20 20 22 22 22 23 23 23 24 25 25 26 26 27 28 28 28 27 25 24 23 23 23 22 21 21 21 21 20 20 19 20 20 19 17 17 18 18 17 18 21 23 23 22 24 25 26 25 22 21 24 26 26 24 22 20 19 18 17 17 17 16 15 15 16 17 17
6 10 14 16 13 12 15 19 20 20 21 20 19 18 18 17 17 18 19 19 20 20 21 21 21 23 23 22 23 25 26 25 26 27 27 28 29 29 27 25 23 23 23 22 21 21 20 19 19 19 18 19 19 18 16 15 17 19 21 23 25 24 24 25 27 28 27 25 24 24 25 25 24 24 22 19 15 13 13 14 14 14 15 17 19 18 18
9 14 16 15 15 17 19 20 21 20 18 17 17 18 18 18 18 19 19 20 21 22 22 22 21 22 23 23 23 24 25 25 25 26 27 28 28 28 27 25 23 23 23 22 20 19 18 18 18 17 16 17 19 18 17 18 19 21 23 23 22 22 22 23 24 23 20 19 21 23 22 20 20 21 21 18 15 15 15 15 15 15 15 17 17 16 16
11 15 16 15 16 17 18 18 18 17 16 16 18 19 19 19 20 20 20 21 21 21 22 23 22 22 23 23 23 24 24 25 24 24 26 26 26 26 25 23 22 23 22 19 18 16 16 17 17 16 15 17 18 17 17 18 19 19 20 19 16 15 15 14 13 12 11 13 16 17 17 16 17 18 19 21 23 24 22 20 18 17 17 17 16 15 15
13 14 15 15 15 15 15 15 16 16 17 18 19 20 20 20 20 20 20 21 20 20 22 23 22 22 22 22 23 23 23 23 22 22 22 21 20 21 20 18 17 18 16 14 14 14 14 16 18 16 16 18 18 16 15 16 16 15 12 8 4 3 3 1 2 5 8 11 14 16 18 19 21 23 25 26 28 27 25 23 20 19 18 17 16 15 14
13 13 14 15 15 14 15 17 18 19 19 19 19 20 20 19 19 18 18 18 19 20 21 21 20 20 21 21 20 20 20 19 19 17 16 15 15 15 14 11 12 14 15 14 13 13 14 15 15 14 16 16 15 13 11 11 10 6 0 4 7 9 8 10 13 16 18 21 22 23 25 25 25 26 27 26 25 24 23 22 21 20 19 18 16 14 12
12 12 13 13 14 16 18 18 18 19 19 18 18 18 17 17 17 17 17 17 17 18 18 17 17 18 19 18 17 18 18 17 16 16 16 16 16 17 16 14 15 18 19 18 16 14 13 12 12 14 14 12 11 10 8 5 1 6 10 12 12 12 11 12 15 18 21 23 24 24 25 25 25 24 24 22 22 22 21 21 20 18 17 15 13 12 10
12 13 13 13 15 17 18 17 16 16 16 15 15 15 15 16 16 16 15 16 16 17 16 16 17 17 17 16 16 16 17 17 17 17 16 15 16 17 17 18 20 21 22 22 21 18 15 12 12 14 12 10 10 9 4 6 13 16 17 16 15 14 13 14 18 20 21 21 22 23 25 25 24 23 22 22 22 21 20 19 17 15 13 12 11 10 9
13 13 14 14 15 16 15 14 13 13 13 14 14 14 14 14 15 15 16 16 16 16 16 16 16 16 15 15 15 16 17 17 16 15 14 14 15 16 17 19 21 21 23 23 21 18 16 14 13 14 14 13 11 8 12 18 20 19 17 14 11 10 11 14 17 18 19 21 22 24 24 22 20 20 19 19 18 17 16 16 14 12 10 9 7 6 5
14 13 14 14 14 14 13 12 11 12 12 13 13 13 14 14 14 15 16 16 16 16 16 16 15 15 15 16 16 17 17 15 12 12 14 16 17 18 17 17 17 18 19 19 18 18 15 13 13 15 16 14 12 14 21 22 19 17 15 12 10 9 10 12 13 14 17 20 20 19 18 16 15 15 16 16 15 14 13 11 9 8 7 8 7 4 2
13 14 14 14 14 13 12 11 11 11 11 11 11 12 13 13 14 14 15 15 15 15 15 16 16 16 16 16 17 17 16 12 10 11 12 12 13 15 16 15 14 14 15 15 17 18 16 13 12 15 16 16 16 20 23 21 17 15 14 12 13 14 14 15 15 15 15 15 14 13 14 14 13 13 13 12 12 11 10 8 7 8 9 9 7 4 2
12 13 14 14 14 13 11 11 10 9 9 9 10 11 12 12 12 13 13 14 14 16 17 18 18 18 17 17 17 16 14 11 8 7 6 6 7 8 9 8 7 8 10 10 9 11 14 14 13 17 19 20 21 23 23 19 15 14 13 13 16 17 16 16 16 14 13 12 12 12 12 12 11 10 8 9 10 10 10 10 10 9 6 4 3 3 3
10 11 11 10 10 9 8 8 8 8 8 8 9 10 11 11 12 12 13 14 15 17 18 19 20 20 19 18 18 18 16 13 10 9 7 5 3 2 1 2 4 3 3 8 7 5 13 16 18 21 24 24 23 22 19 15 14 15 14 16 18 18 16 15 15 13 12 11 11 10 10 12 12 9 8 9 11 12 12 11 10 7 4 1 2 3 4
9 9 8 6 5 5 5 6 7 7 7 8 8 9 10 11 12 13 15 15 16 17 18 18 20 21 21 20 20 19 18 16 13 13 12 9 7 8 10 11 13 13 8 4 5 11 18 23 25 26 26 24 21 18 14 14 15 15 17 20 21 19 17 15 13 12 11 11 11 10 9 10 10 8 7 9 9 8 7 6 4 3 0 2 4 5 7
7 6 5 3 3 3 5 6 7 8 8 7 8 9 10 11 12 14 14 14 15 15 16 17 20 23 25 25 23 20 18 17 16 16 16 16 15 15 17 19 20 21 21 21 22 24 27 28 27 25 23 21 18 16 15 16 17 17 19 23 23 21 18 15 11 10 11 12 10 8 6 6 7 7 7 7 6 5 4 2 1 1 1 3 2 5 7
5 4 2 2 3 5 6 6 6 7 7 7 8 10 11 12 13 14 15 15 14 13 14 17 21 23 25 26 25 22 19 17 17 17 19 21 21 21 21 23 25 27 28 28 27 26 27 26 24 23 21 19 17 17 17 18 18 17 20 24 22 18 13 10 8 8 9 10 8 5 4 4 6 7 6 5 4 4 3 2 2 2 3 5 6 6 4
2 2 3 4 4 4 4 3 4 5 6 6 7 9 12 13 13 13 15 17 16 14 13 15 18 21 22 23 24 25 23 21 19 19 21 24 25 26 26 25 26 27 27 26 24 23 23 22 20 20 19 18 18 19 19 18 17 18 20 22 19 12 8 8 10 10 9 9 8 5 3 4 5 6 5 5 4 4 3 2 3 4 5 8 7 4 1
2 4 4 4 4 3 2 2 4 6 6 5 6 8 10 10 10 10 11 14 16 17 17 16 16 18 19 19 20 22 23 23 23 23 24 26 28 29 30 29 27 26 25 24 23 23 22 21 20 20 20 19 18 18 18 18 17 17 19 19 15 11 9 11 12 11 9 8 7 4 2 3 5 6 5 5 5 4 4 4 4 4 6 6 3 2 2
4 5 4 4 3 2 3 4 5 5 5 4 5 6 6 7 7 8 9 10 12 14 17 17 17 16 16 16 16 17 18 20 22 23 25 27 29 30 30 29 28 26 26 25 24 22 21 20 19 19 18 17 16 16 15 14 14 16 19 19 16 14 15 14 12 10 8 6 4 5 5 6 6 6 6 6 6 5 5 6 7 6 6 5 2 2 1
5 5 4 3 2 2 3 4 4 4 3 4 4 5 5 6 7 8 8 8 8 10 12 15 17 17 16 14 13 12 14 17 19 20 21 24 27 28 29 28 27 26 26 25 24 22 20 18 18 17 16 14 14 13 12 11 10 12 17 18 16 14 14 12 10 9 7 5 6 8 8 6 5 5 5 5 5 4 4 5 6 5 5 4 2 2 2
6 6 5 3 2 1 2 2 2 3 3 3 4 5 6 6 7 8 8 8 7 7 9 11 13 15 16 16 15 13 12 13 17 19 20 21 23 24 25 24 24 24 24 23 23 22 21 20 19 17 16 15 14 13 12 11 11 11 12 14 14 12 11 10 10 10 9 8 8 10 9 7 6 5 4 4 4 3 2 3 4 3 2 3 3 2 3
8 7 5 4 2 1 1 0 1 2 3 3 3 4 5 6 7 7 8 9 8 7 8 9 10 11 13 16 18 18 16 14 15 17 20 21 21 21 21 20 19 19 19 20 20 20 20 19 19 17 15 14 15 14 13 13 13 13 12 12 12 12 12 11 11 10 9 8 8 9 10 9 7 5 3 2 3 3 1 1 0 0 1 1 1 1 2
9 8 7 5 3 2 2 1 0 1 1 2 2 3 4 5 6 7 8 9 9 9 9 9 9 9 10 12 16 19 19 18 17 16 17 19 20 20 20 19 17 16 16 16 17 17 17 17 16 15 13 13 13 13 13 13 13 13 12 11 10 10 10 10 10 9 8 7 6 7 8 8 6 5 3 2 1 1 1 1 2 2 3 3 3 2 2
10 9 8 6 5 4 3 3 2 1 1 1 2 3 3 4 5 6 7 8 9 10 10 9 8 8 8 9 12 16 18 18 19 18 17 17 19 20 20 19 18 17 16 16 16 16 16 15 14 13 13 12 12 12 11 11 11 11 11 10 9 8 8 8 9 8 8 7 7 6 4 3 3 3 2 1 1 1 1 2 3 4 5 5 4 4 3
11 11 9 8 7 6 5 4 3 2 2 3 2 1 2 2 3 4 5 6 7 8 10 11 10 9 8 8 7 9 13 16 17 18 19 18 18 18 18 18 18 17 16 15 15 15 14 13 12 12 12 12 12 12 11 11 11 11 12 12 11 10 8 7 6 6 6 7 7 6 4 2 1 2 2 2 2 2 3 4 5 6 6 6 5 5 4
11 12 11 10 9 7 6 6 5 4 5 5 4 2 0 1 1 2 3 5 5 6 8 10 11 11 10 8 8 7 8 10 12 15 17 18 18 17 17 18 18 18 16 15 15 14 12 11 10 9 9 9 9 10 10 9 9 9 10 11 12 12 11 9 8 6 6 6 6 5 3 2 2 2 3 4 4 4 5 6 7 7 7 7 7 6 6
11 12 12 11 10 9 8 7 7 8 8 6 3 2 1 1 0 0 2 3 4 4 5 8 9 11 11 10 9 9 8 8 9 11 12 14 16 17 17 16 17 18 18 17 16 14 12 10 9 8 8 7 7 6 6 6 5 5 6 7 8 8 9 8 8 7 7 6 4 2 2 3 4 5 5 4 4 5 6 7 8 8 8 8 8 8 8
11 11 12 12 12 11 10 9 9 10 10 7 4 3 3 3 3 2 1 2 2 3 4 5 6 8 9 10 10 10 10 10 11 11 11 12 14 15 15 15 16 17 16 16 16 15 14 12 11 10 9 8 7 6 5 5 5 5 5 5 5 5 6 6 6 7 7 6 4 3 4 6 6 5 4 3 4 6 8 9 8 8 9 10 10 11 11
10 10 11 12 13 14 13 11 11 11 10 7 5 4 4 4 4 3 1 1 2 2 3 4 4 5 5 7 8 9 10 10 11 10 10 11 12 12 13 14 15 15 14 14 16 16 15 14 13 13 12 11 10 8 7 6 6 5 5 5 5 6 6 5 5 6 7 7 5 4 5 7 7 6 5 4 5 8 10 10 8 8 9 11 12 12 12
11 11 11 12 14 15 15 14 15 16 14 10 6 6 5 5 4 3 3 2 1 1 1 2 3 4 4 4 5 5 6 7 9 9 9 9 10 11 12 12 13 12 11 11 13 14 15 14 13 13 13 13 13 11 10 9 8 7 6 6 6 6 6 6 6 6 7 7 6 5 6 7 7 7 7 6 7 9 9 7 6 7 8 9 11 12 12
12 12 11 11 12 14 14 14 15 15 14 11 8 7 6 6 5 5 5 4 3 3 2 3 3 3 2 2 3 3 4 6 7 7 8 8 8 8 8 8 8 9 10 10 10 11 12 13 13 13 12 12 13 12 12 11 10 9 8 8 8 8 8 8 8 8 7 7 7 6 6 6 7 8 8 7 7 6 5 3 4 6 7 8 10 12 13
Wind_Direction
266 272 276 281 283 283 282 282 284 286 287 282 270 265 278 285 281 277 290 302 295 293 307 323 330 329 320 313 299 246 239 221 197 194 208 206 192 182 166 152 149 140 134 133 131 130 130 129 126 122 124 126 120 115 110 105 99 95 106 114 113 112 109 120 182 151 115 274 287 305 306 301 301 300 292 282 277 268 262 261 264 265 263 261 259 256 254
276 277 278 284 285 283 282 280 278 279 280 280 277 272 271 272 275 282 288 288 285 289 296 298 310 322 318 309 297 260 249 251 228 206 214 223 224 219 200 180 176 166 147 141 135 133 134 134 132 129 125 122 121 120 113 103 97 85 68 89 118 122 121 163 246 247 227 263 280 291 284 278 280 286 288 288 286 280 276 274 273 272 268 263 260 260 259
285 285 284 284 281 281 283 281 283 289 286 280 279 279 276 272 274 283 288 288 285 297 310 301 296 301 295 282 276 267 252 246 242 230 228 231 235 240 225 198 188 179 167 160 148 144 143 139 144 150 143 132 134 143 136 125 129 141 159 304 18 95 141 224 275 299 283 272 277 272 265 265 268 270 273 279 285 290 290 284 278 274 269 266 266 265 264
282 285 282 281 285 286 282 281 291 298 290 281 280 278 276 276 280 287 291 292 290 299 308 295 287 295 290 273 273 283 278 265 254 241 233 229 235 247 237 203 193 190 189 185 155 139 149 159 159 156 154 148 140 141 141 132 141 343 17 38 58 62 342 300 303 297 282 271 265 261 260 261 264 266 264 264 268 275 283 285 283 281 276 274 276 274 270
284 288 289 299 307 294 279 281 299 296 285 287 289 280 277 280 280 277 272 274 285 302 312 298 294 320 316 303 308 318 325 329 312 278 250 237 241 250 242 212 207 209 202 180 154 143 153 161 153 128 132 154 153 139 93 83 68 26 24 9 356 348 321 316 292 280 279 279 277 273 270 268 263 262 263 262 259 255 259 268 275 277 275 271 268 268 269
279 289 297 302 290 270 270 288 313 311 300 298 302 306 310 308 301 296 289 284 292 314 328 318 323 346 337 334 336 328 320 331 331 312 287 260 257 262 238 212 208 207 191 142 122 119 316 301 281 292 146 173 180 142 117 122 125 348 341 310 305 301 300 298 288 285 284 281 278 274 274 274 271 269 267 265 264 259 254 255 259 266 270 269 264 262 263
274 286 290 278 262 261 284 286 296 329 320 307 309 307 307 315 326 328 314 296 298 312 316 314 321 332 328 328 331 328 328 342 339 324 300 268 260 264 202 184 162 140 143 110 77 282 288 299 296 285 231 202 194 179 195 213 253 282 288 287 286 284 286 288 288 292 289 281 277 272 270 271 270 270 271 270 270 268 264 262 260 260 263 265 267 267 266
273 275 263 258 270 288 293 297 331 11 336 304 298 287 295 326 341 338 325 313 313 310 304 308 320 331 333 324 320 331 350 5 6 359 342 294 240 193 159 154 113 85 124 269 276 271 285 297 295 280 256 251 247 243 257 266 270 274 276 279 285 286 286 288 292 294 289 282 279 277 276 277 275 274 275 275 274 273 272 270 267 264 262 261 263 265 266
260 267 264 267 282 286 285 323 24 31 18 4 340 303 314 319 315 332 345 343 335 316 310 331 351 354 348 326 333 356 356 351 4 9 6 13 81 117 129 143 143 251 252 257 259 262 276 283 286 287 285 282 275 269 275 276 274 276 280 283 286 286 285 287 289 288 285 282 281 281 282 282 282 282 281 277 275 274 273 273 271 269 268 266 264 264 264
252 264 270 270 274 279 317 60 54 40 35 32 14 339 325 330 4 32 27 13 358 341 334 350 359 355 340 305 353 4 352 349 11 13 7 28 69 97 134 198 233 249 252 251 251 263 281 284 283 285 282 277 279 280 281 279 278 278 278 280 282 282 283 285 284 281 280 279 279 278 278 277 278 278 278 277 276 274 272 272 272 271 269 269 269 266 262
251 257 264 264 263 284 48 55 52 41 30 9 331 290 303 18 34 37 26 9 3 355 354 355 347 332 314 318 6 356 344 351 11 5 351 358 20 35 260 252 257 263 269 266 262 274 287 285 277 275 277 279 281 280 277 276 275 275 276 276 276 278 279 280 280 278 276 275 275 274 273 274 274 273 274 274 273 272 270 269 270 273 273 269 264 262 259
246 248 253 259 260 40 36 23 29 35 19 346 299 241 272 10 14 14 2 352 347 342 343 343 335 322 325 336 346 341 334 333 336 336 335 337 339 330 301 289 293 290 283 279 276 278 283 281 276 277 279 278 276 275 274 273 271 271 272 271 271 275 278 278 279 280 279 276 275 274 273 273 271 271 273 274 272 269 268 267 268 270 268 263 259 259 260
245 245 251 254 230 58 8 354 359 6 358 336 282 247 290 346 350 352 350 339 331 330 328 323 317 321 324 322 319 316 310 308 313 318 317 315 316 312 298 299 311 312 298 284 278 276 278 278 278 278 278 276 276 276 273 271 270 270 270 270 272 275 276 278 279 280 279 277 274 272 270 269 268 269 268 267 265 266 266 265 266 265 261 259 257 258 260
256 258 261 260 245 46 342 342 353 353 335 317 330 317 312 320 331 337 335 326 322 324 321 315 314 316 315 311 309 308 304 302 303 304 303 301 299 296 291 289 294 296 292 288 284 280 278 276 274 276 277 277 276 276 273 270 269 270 271 272 274 275 275 275 276 275 274 273 272 271 269 268 267 266 262 260 262 265 263 260 261 263 261 259 258 258 260
274 269 264 267 269 326 322 334 5 20 6 345 335 327 322 324 328 327 322 319 316 314 314 311 308 307 309 308 305 303 301 299 297 296 295 291 285 287 290 286 280 278 277 278 279 280 283 284 282 280 278 276 275 275 274 273 273 274 275 276 276 276 275 275 276 277 276 274 273 273 272 271 268 264 262 263 264 262 260 257 255 258 260 260 259 258 257
286 264 267 269 217 244 293 342 12 22 358 335 326 321 317 317 318 312 307 309 310 307 305 304 303 301 300 299 299 299 296 294 293 292 290 286 282 283 283 279 276 276 275 274 274 273 273 275 276 275 274 276 277 275 274 276 277 278 279 280 279 278 277 278 279 279 278 277 276 275 273 271 267 266 266 266 263 261 260 254 251 253 256 256 254 253 253
308 292 305 313 267 272 342 15 8 334 324 319 314 311 306 307 313 315 313 318 323 319 309 304 303 299 296 294 293 293 292 291 291 288 285 283 283 282 280 279 279 278 275 275 277 279 277 274 272 274 277 278 277 277 276 277 280 280 281 282 280 277 277 277 277 277 276 276 276 276 275 272 267 266 268 266 262 257 252 248 250 253 251 246 244 250 258
314 307 308 312 310 321 345 347 322 312 316 314 311 312 311 314 321 323 319 316 317 315 309 304 300 296 295 295 292 290 290 289 289 287 284 282 283 283 282 282 282 281 281 281 280 282 284 284 282 282 283 280 277 277 277 278 279 280 280 278 276 275 275 275 275 276 277 277 277 277 276 273 269 266 264 262 256 249 248 251 251 245 238 238 244 254 265
308 306 305 316 327 336 339 330 321 321 318 314 317 320 321 320 317 314 312 308 304 302 299 296 294 292 292 291 289 289 289 287 285 286 285 283 283 283 282 280 278 277 279 280 279 277 277 280 283 283 282 281 279 278 278 278 279 278 276 276 276 276 276 276 275 275 276 277 277 276 274 272 270 265 260 256 254 251 251 251 244 234 234 244 252 260 266
302 298 312 337 346 344 335 324 320 318 316 317 320 318 316 315 310 305 304 301 297 295 294 293 293 293 292 290 288 289 289 287 286 285 283 283 283 282 282 282 280 279 277 276 280 283 279 278 282 283 281 280 279 277 277 277 277 277 276 275 274 272 271 270 271 271 271 270 270 271 272 269 263 258 255 255 254 252 248 245 244 244 247 252 255 257 252
301 296 323 348 348 333 318 316 316 317 322 323 319 313 309 307 305 302 300 298 295 294 295 296 297 297 296 295 293 291 292 292 291 287 285 286 285 282 281 280 282 286 286 283 286 290 286 281 280 279 276 277 277 278 280 279 276 275 273 270 268 268 268 269 269 269 268 267 267 268 267 262 256 253 254 253 249 246 244 246 251 253 251 245 237 229 212
300 312 327 334 329 312 312 318 316 315 318 315 311 310 309 307 306 306 303 301 300 298 297 298 296 294 293 293 291 290 289 289 289 287 286 287 287 285 284 282 282 284 285 282 281 281 279 277 277 277 279 282 282 279 279 275 269 267 268 269 270 271 271 269 266 264 263 263 264 261 257 256 254 253 252 250 247 249 253 253 245 237 226 206 185 174 168
312 316 318 319 316 308 307 310 310 310 312 310 310 313 314 314 315 314 310 308 306 303 301 299 295 292 292 292 292 291 289 288 288 286 284 284 286 285 283 281 280 279 277 275 273 273 274 276 278 280 281 280 277 274 272 271 268 268 273 277 279 278 274 269 267 267 265 262 260 257 254 253 253 249 243 238 233 231 229 220 205 190 182 174 163 158 161
317 312 315 316 311 305 306 309 310 312 315 318 320 320 317 315 314 312 310 310 308 306 303 301 297 295 295 294 293 292 291 291 290 288 285 284 282 281 281 280 277 275 274 273 272 274 278 280 279 280 282 280 279 278 275 272 273 276 281 286 288 286 282 280 280 280 274 260 252 250 246 240 235 232 225 207 179 162 162 162 154 146 148 153 154 159 166
309 308 316 317 310 309 312 313 313 317 325 328 324 318 315 315 314 314 312 309 308 308 307 305 303 301 299 298 296 294 294 294 293 292 291 288 281 276 274 272 270 272 276 277 276 278 283 280 275 277 285 288 288 287 279 275 280 289 293 295 296 293 292 292 291 284 263 236 225 222 215 203 192 188 185 171 153 143 141 141 140 139 142 147 155 164 167
314 316 322 321 317 319 323 322 320 322 324 323 319 316 316 316 315 314 313 312 311 311 311 310 310 307 303 301 301 300 300 300 299 297 297 295 291 284 279 276 275 276 278 282 283 282 283 279 272 273 283 287 284 281 279 282 292 300 302 305 331 6 3 26 121 144 154 160 162 158 153 150 148 147 148 146 142 140 141 143 143 144 144 148 156 160 156
325 331 332 327 323 324 325 322 320 319 319 319 317 317 318 320 319 317 315 314 312 308 308 313 318 316 312 308 305 304 306 308 308 306 303 301 297 294 292 292 288 280 275 278 282 281 281 281 274 271 276 277 271 268 276 289 300 309 3 112 95 89 97 107 110 115 121 126 128 129 130 133 135 137 138 138 139 142 144 145 145 144 144 145 147 145 139
328 333 333 324 317 317 318 317 315 315 317 319 320 322 324 327 327 323 318 318 318 316 315 319 322 321 319 317 313 310 310 310 308 305 302 298 291 285 280 278 279 278 276 276 278 279 280 283 283 280 271 251 239 255 275 280 186 119 113 105 95 94 107 119 120 121 124 125 125 128 131 132 131 132 134 136 139 140 140 140 139 136 135 136 131 122 110
329 329 326 319 315 316 319 319 318 319 323 327 331 335 336 336 335 332 330 330 330 329 329 328 326 324 324 323 322 320 315 311 308 306 303 298 291 286 282 278 276 276 275 274 274 275 273 269 275 280 265 227 222 246 242 146 133 123 114 106 100 100 106 112 114 115 117 118 120 123 125 125 125 126 130 132 132 131 128 125 121 114 113 117 113 103 92
328 327 323 321 322 325 329 331 330 332 338 342 343 343 343 344 344 342 340 341 338 337 336 334 331 331 331 330 329 326 318 312 308 304 297 290 286 285 284 281 276 274 272 270 267 266 264 260 261 262 248 230 224 202 153 139 135 129 125 121 114 115 121 117 109 105 110 116 117 116 116 115 116 120 122 120 118 117 116 113 105 95 97 104 98 88 80
327 327 324 326 330 332 337 342 345 346 348 348 349 352 355 356 354 350 349 350 348 345 345 343 342 342 342 340 339 334 325 319 313 302 293 288 287 289 290 288 285 282 278 270 260 252 244 240 247 247 235 223 207 170 150 143 140 139 138 130 123 137 150 143 130 121 119 119 115 111 112 115 118 120 119 115 111 109 108 106 101 97 111 127 129 126 108
326 325 327 332 335 338 346 356 356 355 356 357 0 3 2 360 358 358 357 357 355 355 357 358 357 354 349 346 346 343 337 330 318 307 302 298 296 297 298 299 298 291 282 273 263 252 231 213 225 234 218 197 181 165 156 150 144 142 141 138 139 146 145 138 138 138 133 127 124 124 125 125 122 121 123 125 124 117 108 109 125 134 137 137 128 111 68
327 328 330 332 335 340 352 1 1 2 8 10 10 11 9 6 5 4 1 0 2 5 8 9 9 7 3 360 1 1 359 354 344 336 335 327 312 303 300 302 305 295 287 286 274 237 205 194 208 213 196 177 165 161 160 157 146 137 140 148 150 144 132 127 134 138 133 129 130 133 134 130 122 118 126 139 144 137 123 113 112 111 108 102 66 23 349
327 327 326 329 336 342 351 3 9 13 17 20 22 21 17 13 11 12 13 11 9 10 12 15 18 20 17 13 16 21 22 20 23 35 42 29 0 17 83 97 90 89 287 290 287 200 176 176 182 183 177 168 160 157 157 154 143 136 144 153 150 137 127 130 136 133 127 123 124 127 128 123 114 106 109 123 133 134 128 118 107 93 79 33 326 333 325
332 329 326 333 346 354 8 23 25 24 28 31 27 22 17 15 17 21 21 19 15 15 16 19 25 29 27 24 26 32 36 38 44 55 64 69 77 87 96 100 99 100 114 153 157 151 157 162 163 163 163 159 155 150 145 144 146 147 149 151 146 136 129 132 134 134 135 135 134 135 132 123 119 120 123 127 132 133 130 130 129 120 115 290 311 346 0
338 334 336 351 24 47 52 47 40 39 40 33 25 23 22 22 24 26 24 19 15 15 18 23 29 31 30 30 34 38 41 45 50 57 65 74 82 85 88 93 96 100 108 114 118 130 144 151 153 151 148 143 142 141 139 142 148 152 153 152 146 135 127 127 132 143 149 145 138 132 124 124 140 148 140 131 129 123 113 105 92 72 326 321 7 47 41
347 349 19 70 75 68 59 51 46 44 39 30 31 35 34 32 32 33 30 23 15 11 16 26 30 28 25 27 34 40 43 46 50 55 60 69 78 83 85 87 90 95 98 99 104 117 132 139 138 136 133 132 134 138 139 141 144 147 152 154 147 133 124 126 134 141 146 147 145 132 111 121 141 140 123 109 100 91 81 68 64 52 17 24 58 86 96
17 68 97 97 85 72 63 57 58 53 43 33 28 23 20 22 23 20 18 19 17 15 20 27 27 23 19 21 29 36 41 45 50 56 60 63 69 75 79 79 80 85 89 93 101 116 128 131 128 125 125 127 132 133 133 135 137 140 148 153 150 141 139 143 136 131 139 154 163 162 140 125 129 125 113 103 93 85 84 91 92 85 71 65 72 89 130
107 122 118 101 89 80 64 61 71 68 56 37 17 5 6 11 10 1 1 7 10 13 20 25 21 16 16 18 22 28 34 39 46 53 58 60 63 67 70 71 74 80 89 96 105 114 119 120 118 116 117 120 124 126 128 131 131 134 143 150 149 146 148 146 139 137 146 159 166 167 143 115 111 107 102 95 88 86 89 91 92 97 96 96 111 213 243
141 140 126 107 95 79 48 47 63 72 61 36 19 10 5 3 2 360 2 4 2 5 13 21 21 17 15 16 19 21 23 30 40 50 57 60 63 66 67 68 71 77 85 91 96 102 108 111 111 111 112 114 116 120 128 134 135 139 146 149 147 143 145 145 144 145 150 148 135 121 119 119 115 111 108 105 102 102 100 96 92 91 89 83 53 315 305
157 152 138 119 98 76 56 47 49 53 45 28 20 14 8 7 7 5 4 7 8 4 6 13 20 21 17 19 26 28 22 23 34 46 55 61 64 65 65 65 66 69 74 78 83 87 92 96 98 99 101 104 106 112 121 126 129 138 149 154 153 151 152 154 151 144 138 133 125 121 120 120 121 122 125 129 129 130 134 133 127 122 120 119 103 3 355
169 165 156 144 125 93 70 56 46 44 40 30 19 10 10 14 15 9 3 5 13 20 15 11 14 20 22 27 37 46 42 32 34 43 52 57 61 64 66 66 66 68 71 73 76 77 78 79 81 84 88 92 95 100 107 111 110 117 134 146 148 146 144 145 142 133 123 117 117 117 113 109 112 120 132 150 157 155 156 158 160 166 169 170 192 264 314
181 179 177 173 172 177 184 144 71 50 36 24 15 9 9 12 14 14 12 10 14 27 31 23 16 18 19 21 30 43 53 52 47 48 54 58 61 64 67 69 70 72 73 74 74 74 72 70 68 68 71 78 86 90 95 101 105 109 117 128 133 131 126 124 126 128 126 124 126 127 125 121 121 131 148 163 160 155 148 118 115 333 6 59 167 246 301
190 192 193 195 200 209 212 213 233 355 4 2 5 8 11 13 16 19 20 21 25 34 38 34 32 32 24 13 14 26 41 52 57 57 59 63 65 66 67 69 70 71 74 76 76 75 74 74 73 69 65 68 77 84 86 90 97 104 110 117 121 121 117 113 109 106 106 108 115 129 139 144 150 163 176 172 135 125 110 8 23 49 58 60 68 69 38
196 200 201 203 212 218 214 221 239 242 240 291 343 7 15 14 16 20 22 22 27 33 38 42 47 50 47 32 15 11 19 37 52 60 63 66 66 65 65 66 66 66 68 71 72 73 75 79 84 85 82 79 80 84 86 86 87 91 95 100 103 105 108 111 111 109 108 105 101 102 119 156 178 173 165 159 129 103 70 44 61 75 75 70 68 61 35
200 206 207 209 215 217 218 228 238 234 236 258 284 348 35 25 13 16 23 25 26 29 34 42 50 58 65 70 57 28 16 23 37 47 55 62 67 70 71 71 68 64 64 65 66 67 70 75 78 81 83 83 83 84 85 87 90 92 93 91 88 83 80 84 95 109 116 112 102 94 88 82 111 125 118 102 89 85 79 77 82 84 78 71 63 49 29
206 208 209 211 216 221 226 231 236 244 253 255 247 226 103 38 17 15 26 34 38 35 32 35 43 50 57 69 82 74 50 36 34 37 40 47 56 64 71 75 75 72 69 67 65 65 66 68 70 71 73 79 83 82 82 87 96 103 106 106 104 98 90 81 74 76 86 91 91 95 102 89 68 78 86 80 73 79 86 87 84 79 74 69 63 52 41
210 212 213 213 215 223 233 234 234 243 251 252 236 212 212 237 254 353 18 23 34 45 40 34 35 39 41 47 62 72 71 65 59 49 40 40 46 51 55 61 67 68 66 64 65 65 65 66 69 67 66 74 86 89 84 84 89 95 104 116 122 120 114 102 87 79 81 84 84 92 100 81 66 65 68 65 69 86 93 87 77 70 67 63 60 56 49
217 221 221 215 214 222 229 228 231 240 243 237 218 206 212 227 239 244 344 21 33 58 60 48 40 35 31 32 42 52 58 61 62 58 51 47 48 49 50 52 55 56 54 52 53 56 59 62 66 66 63 65 73 78 77 79 81 81 84 93 102 105 105 104 98 89 83 77 67 64 80 84 82 80 79 79 93 102 98 88 78 75 73 66 60 57 53
218 221 223 219 218 221 221 219 225 235 236 225 209 208 218 233 241 232 187 107 82 79 72 65 66 65 54 39 35 38 43 49 54 58 58 55 53 54 55 55 55 55 50 43 42 46 50 52 54 56 56 55 57 59 60 63 69 73 78 84 90 91 88 90 97 99 93 83 68 64 78 85 81 71 64 71 90 98 97 90 81 78 76 70 65 61 58
217 221 224 221 218 221 223 220 220 225 230 226 209 203 218 236 242 228 212 211 204 149 104 88 82 78 70 57 47 44 46 49 50 54 60 59 53 50 51 52 53 57 55 45 38 41 45 46 48 51 50 48 49 50 50 50 51 53 60 70 77 81 81 83 90 99 101 97 88 83 86 87 79 66 58 60 71 79 84 86 84 80 80 79 76 71 68
221 227 231 225 220 227 231 221 209 213 228 233 216 204 221 239 237 226 226 223 204 178 169 155 134 118 97 65 44 50 65 67 58 56 64 68 60 53 55 58 59 62 63 56 46 43 42 43 48 53 52 49 49 49 49 48 45 45 52 62 68 70 74 81 85 87 87 87 88 91 96 97 94 88 85 80 76 74 81 105 114 104 98 97 92 85 77